Weather History for Gage, OK

Change the Weather History Date:

Thursday, November 22, 2012

  Actual Average Record
Temperature  
Mean Temperature 60 °F -  
Max Temperature 73 °F 55 °F 80 °F (1966)
Min Temperature 46 °F 29 °F 9 °F (1972)
Degree Days  
Heating Degree Days 4    
Growing Degree Days 10 (Base 50)    
Moisture  
Dew Point 38 °F    
Average Humidity 46    
Maximum Humidity 77    
Minimum Humidity 16    
Precipitation  
Precipitation 0.00 in - - ()
Sea Level Pressure  
Sea Level Pressure 29.97 in    
Wind  
Wind Speed 21 mph (WNW)    
Max Wind Speed 28 mph    
Max Gust Speed 37 mph    
Visibility 10 miles    
Events      
Averages and records for this station are not official NWS values.
T = Trace of Precipitation, MM = Missing Value Source: NWS Daily Summary

Daily Weather History Graph

Daily Weather History Graph

Search for Another Location

Airport:

Trip Planner

Search our weather history database for the weather conditions in past years. The results will help you decide how hot, cold, wet, or windy it might be!

Date:

Astronomy

Nov. 22, 2012 Rise Set
Actual Time 7:23 AM CST 5:26 PM CST
Civil Twilight 6:55 AM CST 5:54 PM CST
Nautical Twilight 6:24 AM CST 6:26 PM CST
Astronomical Twilight 5:53 AM CST 6:56 PM CST
Moon 2:05 PM CST (11/22) 1:54 AM CST (11/22)
Length of Visible Light 10h 58m
Length of Day
10h 02m
Waxing Gibbous, 71% of the Moon is Illuminated
Nov 22
Waxing Gibbous
Nov 28
Full
Dec 6
Last Quarter
Dec 13
New
Dec 19
First Quarter

Hourly Weather History & Observations

Time (CST) Temp. Windchill Dew Point Humidity Pressure Visibility Wind Dir Wind Speed Gust Speed Precip Events Conditions
12:53 AM 63.0 °F - 48.0 °F 58% 29.88 in 10.0 mi SSW 27.6 mph 36.8 mph N/A   Clear
1:53 AM 62.1 °F - 48.0 °F 60% 29.86 in 10.0 mi South 25.3 mph 31.1 mph N/A   Clear
2:53 AM 61.0 °F - 48.0 °F 62% 29.86 in 10.0 mi South 24.2 mph 29.9 mph N/A   Clear
3:53 AM 59.0 °F - 48.0 °F 67% 29.85 in 10.0 mi South 24.2 mph 32.2 mph N/A   Clear
4:53 AM 57.9 °F - 48.9 °F 72% 29.84 in 10.0 mi South 19.6 mph - N/A   Clear
5:53 AM 57.0 °F - 48.9 °F 74% 29.84 in 10.0 mi SSW 18.4 mph - N/A   Clear
6:53 AM 57.0 °F - 50.0 °F 77% 29.84 in 10.0 mi South 18.4 mph 25.3 mph N/A   Clear
7:53 AM 57.0 °F - 50.0 °F 77% 29.84 in 10.0 mi South 18.4 mph - N/A   Clear
8:53 AM 61.0 °F - 50.0 °F 67% 29.86 in 10.0 mi SSW 20.7 mph - N/A   Clear
9:53 AM 64.0 °F - 46.0 °F 52% 29.86 in 10.0 mi SW 17.3 mph - N/A   Clear
10:53 AM 66.9 °F - 39.0 °F 36% 29.87 in 10.0 mi WSW 13.8 mph - N/A   Clear
11:53 AM 70.0 °F - 30.9 °F 24% 29.86 in 10.0 mi West 13.8 mph - N/A   Clear
12:53 PM 71.1 °F - 24.1 °F 17% 29.85 in 10.0 mi WNW 15.0 mph - N/A   Clear
1:53 PM 70.0 °F - 21.9 °F 16% 29.87 in 10.0 mi North 15.0 mph 20.7 mph N/A   Clear
2:53 PM 73.9 °F - 28.9 °F 19% 29.88 in 10.0 mi NNE 15.0 mph 29.9 mph N/A   Clear
3:53 PM 72.0 °F - 28.0 °F 20% 29.93 in 10.0 mi NNE 23.0 mph 33.4 mph N/A   Clear
4:53 PM 69.1 °F - 28.0 °F 22% 29.99 in 10.0 mi North 19.6 mph 35.7 mph N/A   Clear
5:53 PM 64.0 °F - 28.9 °F 27% 30.05 in 10.0 mi North 23.0 mph 31.1 mph N/A   Clear
6:53 PM 61.0 °F - 30.0 °F 31% 30.11 in 10.0 mi North 21.9 mph 29.9 mph N/A   Clear
7:53 PM 57.0 °F - 32.0 °F 39% 30.17 in 10.0 mi NNE 23.0 mph 32.2 mph N/A   Clear
8:53 PM 54.0 °F - 32.0 °F 43% 30.23 in 10.0 mi NNE 21.9 mph 32.2 mph N/A   Clear
9:53 PM 51.1 °F - 30.9 °F 46% 30.27 in 10.0 mi NNE 15.0 mph - N/A   Clear
10:53 PM 48.9 °F - 30.9 °F 50% 30.31 in 10.0 mi NNE 13.8 mph - N/A   Clear
11:53 PM 46.0 °F 41.4 °F 30.0 °F 54% 30.33 in 10.0 mi North 9.2 mph - N/A   Clear